Year,Month,Day,Hour,Minute,Value (Times are PST for temperature in C)
2011,09,19,00,00,13.80
2011,09,19,00,01,13.70
2011,09,19,00,02,13.70
2011,09,19,00,03,13.60
2011,09,19,00,04,13.60
2011,09,19,00,05,13.50
2011,09,19,00,06,13.50
2011,09,19,00,07,13.50
2011,09,19,00,08,13.40
2011,09,19,00,09,13.40
2011,09,19,00,10,13.40
2011,09,19,00,11,13.40
2011,09,19,00,12,13.30
2011,09,19,00,13,13.30
2011,09,19,00,14,13.30
2011,09,19,00,15,13.30
2011,09,19,00,16,13.30
2011,09,19,00,17,13.20
2011,09,19,00,18,13.20
2011,09,19,00,19,13.20
2011,09,19,00,20,13.20
2011,09,19,00,21,13.20
2011,09,19,00,22,13.20
2011,09,19,00,23,13.10
2011,09,19,00,24,13.10
2011,09,19,00,25,13.10
2011,09,19,00,26,13.10
2011,09,19,00,27,13.10
2011,09,19,00,28,13.00
2011,09,19,00,29,13.00
2011,09,19,00,30,12.90
2011,09,19,00,31,12.90
2011,09,19,00,32,12.80
2011,09,19,00,33,12.80
2011,09,19,00,34,12.70
2011,09,19,00,35,12.70
2011,09,19,00,36,12.60
2011,09,19,00,37,12.60
2011,09,19,00,38,12.50
2011,09,19,00,39,12.50
2011,09,19,00,40,12.50
2011,09,19,00,41,12.50
2011,09,19,00,42,12.50
2011,09,19,00,43,12.50
2011,09,19,00,44,12.40
2011,09,19,00,45,12.40
2011,09,19,00,46,12.40
2011,09,19,00,47,12.40
2011,09,19,00,48,12.30
2011,09,19,00,49,12.30
2011,09,19,00,50,12.30
2011,09,19,00,51,12.30
2011,09,19,00,52,12.30
2011,09,19,00,53,12.30
2011,09,19,00,54,12.30
2011,09,19,00,55,12.30
2011,09,19,00,56,12.30
2011,09,19,00,57,12.30
2011,09,19,00,58,12.30
2011,09,19,00,59,12.30
2011,09,19,01,00,12.20
2011,09,19,01,01,12.20
2011,09,19,01,02,12.20
2011,09,19,01,03,12.20
2011,09,19,01,04,12.20
2011,09,19,01,05,12.30
2011,09,19,01,06,12.30
2011,09,19,01,07,12.30
2011,09,19,01,08,12.30
2011,09,19,01,09,12.30
2011,09,19,01,10,12.30
2011,09,19,01,11,12.30
2011,09,19,01,12,12.30
2011,09,19,01,13,12.20
2011,09,19,01,14,12.20
2011,09,19,01,15,12.30
2011,09,19,01,16,12.30
2011,09,19,01,17,12.20
2011,09,19,01,18,12.20
2011,09,19,01,19,12.20
2011,09,19,01,20,12.20
2011,09,19,01,21,12.20
2011,09,19,01,22,12.20
2011,09,19,01,23,12.30
2011,09,19,01,24,12.30
2011,09,19,01,25,12.30
2011,09,19,01,26,12.30
2011,09,19,01,27,12.30
2011,09,19,01,28,12.30
2011,09,19,01,29,12.40
2011,09,19,01,30,12.40
2011,09,19,01,31,12.50
2011,09,19,01,32,12.50
2011,09,19,01,33,12.50
2011,09,19,01,34,12.50
2011,09,19,01,35,12.50
2011,09,19,01,36,12.50
2011,09,19,01,37,12.50
2011,09,19,01,38,12.40
2011,09,19,01,39,12.30
2011,09,19,01,40,12.20
2011,09,19,01,41,12.10
2011,09,19,01,42,12.10
2011,09,19,01,43,12.10
2011,09,19,01,44,12.00
2011,09,19,01,45,12.00
2011,09,19,01,46,12.00
2011,09,19,01,47,12.00
2011,09,19,01,48,12.00
2011,09,19,01,49,12.00
2011,09,19,01,50,12.00
2011,09,19,01,51,12.00
2011,09,19,01,52,12.00
2011,09,19,01,53,12.00
2011,09,19,01,54,12.00
2011,09,19,01,55,11.90
2011,09,19,01,56,11.90
2011,09,19,01,57,11.90
2011,09,19,01,58,11.90
2011,09,19,01,59,11.90
2011,09,19,02,00,11.90
2011,09,19,02,01,11.90
2011,09,19,02,02,11.90
2011,09,19,02,03,12.00
2011,09,19,02,04,11.90
2011,09,19,02,05,12.00
2011,09,19,02,06,12.00
2011,09,19,02,07,12.00
2011,09,19,02,08,12.00
2011,09,19,02,09,12.00
2011,09,19,02,10,12.10
2011,09,19,02,11,12.10
2011,09,19,02,12,12.10
2011,09,19,02,13,12.10
2011,09,19,02,14,12.10
2011,09,19,02,15,12.10
2011,09,19,02,16,12.10
2011,09,19,02,17,12.10
2011,09,19,02,18,12.20
2011,09,19,02,19,12.10
2011,09,19,02,20,12.10
2011,09,19,02,21,12.00
2011,09,19,02,22,12.00
2011,09,19,02,23,11.90
2011,09,19,02,24,11.90
2011,09,19,02,25,11.80
2011,09,19,02,26,11.80
2011,09,19,02,27,11.80
2011,09,19,02,28,11.80
2011,09,19,02,29,11.80
2011,09,19,02,30,11.70
2011,09,19,02,31,11.70
2011,09,19,02,32,11.70
2011,09,19,02,33,11.70
2011,09,19,02,34,11.70
2011,09,19,02,35,11.60
2011,09,19,02,36,11.60
2011,09,19,02,37,11.60
2011,09,19,02,38,11.60
2011,09,19,02,39,11.60
2011,09,19,02,40,11.60
2011,09,19,02,41,11.50
2011,09,19,02,42,11.50
2011,09,19,02,43,11.50
2011,09,19,02,44,11.50
2011,09,19,02,45,11.50
2011,09,19,02,46,11.50
2011,09,19,02,47,11.50
2011,09,19,02,48,11.40
2011,09,19,02,49,11.40
2011,09,19,02,50,11.40
2011,09,19,02,51,11.40
2011,09,19,02,52,11.40
2011,09,19,02,53,11.30
2011,09,19,02,54,11.30
2011,09,19,02,55,11.30
2011,09,19,02,56,11.20
2011,09,19,02,57,11.20
2011,09,19,02,58,11.20
2011,09,19,02,59,11.20
2011,09,19,03,00,11.10
2011,09,19,03,01,11.10
2011,09,19,03,02,11.10
2011,09,19,03,03,11.10
2011,09,19,03,04,11.10
2011,09,19,03,05,11.00
2011,09,19,03,06,11.00
2011,09,19,03,07,10.90
2011,09,19,03,08,10.80
2011,09,19,03,09,10.80
2011,09,19,03,10,10.80
2011,09,19,03,11,10.70
2011,09,19,03,12,10.70
2011,09,19,03,13,10.60
2011,09,19,03,14,10.60
2011,09,19,03,15,10.60
2011,09,19,03,16,10.60
2011,09,19,03,17,10.50
2011,09,19,03,18,10.50
2011,09,19,03,19,10.50
2011,09,19,03,20,10.50
2011,09,19,03,21,10.50
2011,09,19,03,22,10.50
2011,09,19,03,23,10.50
2011,09,19,03,24,10.50
2011,09,19,03,25,10.50
2011,09,19,03,26,10.50
2011,09,19,03,27,10.40
2011,09,19,03,28,10.40
2011,09,19,03,29,10.40
2011,09,19,03,30,10.40
2011,09,19,03,31,10.30
2011,09,19,03,32,10.30
2011,09,19,03,33,10.30
2011,09,19,03,34,10.30
2011,09,19,03,35,10.30
2011,09,19,03,36,10.20
2011,09,19,03,37,10.20
2011,09,19,03,38,10.20
2011,09,19,03,39,10.20
2011,09,19,03,40,10.20
2011,09,19,03,41,10.10
2011,09,19,03,42,10.10
2011,09,19,03,43,10.10
2011,09,19,03,44,10.10
2011,09,19,03,45,10.10
2011,09,19,03,46,10.00
2011,09,19,03,47,10.00
2011,09,19,03,48,10.00
2011,09,19,03,49,9.90
2011,09,19,03,50,9.90
2011,09,19,03,51,9.90
2011,09,19,03,52,9.80
2011,09,19,03,53,9.80
2011,09,19,03,54,9.80
2011,09,19,03,55,9.80
2011,09,19,03,56,9.80
2011,09,19,03,57,9.80
2011,09,19,03,58,9.80
2011,09,19,03,59,9.70
2011,09,19,04,00,9.70
2011,09,19,04,01,9.60
2011,09,19,04,02,9.60
2011,09,19,04,03,9.60
2011,09,19,04,04,9.60
2011,09,19,04,05,9.50
2011,09,19,04,06,9.50
2011,09,19,04,07,9.40
2011,09,19,04,08,9.40
2011,09,19,04,09,9.30
2011,09,19,04,10,9.30
2011,09,19,04,11,9.20
2011,09,19,04,12,9.20
2011,09,19,04,13,9.20
2011,09,19,04,14,9.20
2011,09,19,04,15,9.10
2011,09,19,04,16,9.10
2011,09,19,04,17,9.10
2011,09,19,04,18,9.10
2011,09,19,04,19,9.20
2011,09,19,04,20,9.20
2011,09,19,04,21,9.20
2011,09,19,04,22,9.20
2011,09,19,04,23,9.20
2011,09,19,04,24,9.20
2011,09,19,04,25,9.20
2011,09,19,04,26,9.20
2011,09,19,04,27,9.20
2011,09,19,04,28,9.20
2011,09,19,04,29,9.20
2011,09,19,04,30,9.10
2011,09,19,04,31,9.10
2011,09,19,04,32,9.10
2011,09,19,04,33,9.10
2011,09,19,04,34,8.90
2011,09,19,04,35,8.90
2011,09,19,04,36,8.80
2011,09,19,04,37,8.70
2011,09,19,04,38,8.70
2011,09,19,04,39,8.60
2011,09,19,04,40,8.60
2011,09,19,04,41,8.60
2011,09,19,04,42,8.50
2011,09,19,04,43,8.50
2011,09,19,04,44,8.50
2011,09,19,04,45,8.50
2011,09,19,04,46,8.50
2011,09,19,04,47,8.50
2011,09,19,04,48,8.50
2011,09,19,04,49,8.50
2011,09,19,04,50,8.50
2011,09,19,04,51,8.50
2011,09,19,04,52,8.50
2011,09,19,04,53,8.50
2011,09,19,04,54,8.50
2011,09,19,04,55,8.50
2011,09,19,04,56,8.50
2011,09,19,04,57,8.40
2011,09,19,04,58,8.40
2011,09,19,04,59,8.40
2011,09,19,05,00,8.40
2011,09,19,05,01,8.30
2011,09,19,05,02,8.30
2011,09,19,05,03,8.30
2011,09,19,05,04,8.30
2011,09,19,05,05,8.30
2011,09,19,05,06,8.30
2011,09,19,05,07,8.30
2011,09,19,05,08,8.20
2011,09,19,05,09,8.20
2011,09,19,05,10,8.20
2011,09,19,05,11,8.20
2011,09,19,05,12,8.20
2011,09,19,05,13,8.20
2011,09,19,05,14,8.20
2011,09,19,05,15,8.20
2011,09,19,05,16,8.20
2011,09,19,05,17,8.20
2011,09,19,05,18,8.20
2011,09,19,05,19,8.20
2011,09,19,05,20,8.20
2011,09,19,05,21,8.20
2011,09,19,05,22,8.10
2011,09,19,05,23,8.10
2011,09,19,05,24,8.10
2011,09,19,05,25,8.10
2011,09,19,05,26,8.00
2011,09,19,05,27,8.00
2011,09,19,05,28,8.00
2011,09,19,05,29,8.00
2011,09,19,05,30,7.90
2011,09,19,05,31,7.90
2011,09,19,05,32,7.90
2011,09,19,05,33,7.90
2011,09,19,05,34,7.90
2011,09,19,05,35,7.90
2011,09,19,05,36,8.00
2011,09,19,05,37,8.00
2011,09,19,05,38,7.90
2011,09,19,05,39,7.90
2011,09,19,05,40,7.90
2011,09,19,05,41,7.90
2011,09,19,05,42,7.90
2011,09,19,05,43,7.90
2011,09,19,05,44,7.90
2011,09,19,05,45,7.90
2011,09,19,05,46,8.00
2011,09,19,05,47,8.00
2011,09,19,05,48,8.00
2011,09,19,05,49,8.00
2011,09,19,05,50,8.00
2011,09,19,05,51,8.00
2011,09,19,05,52,7.90
2011,09,19,05,53,7.90
2011,09,19,05,54,7.80
2011,09,19,05,55,7.80
2011,09,19,05,56,7.70
2011,09,19,05,57,7.70
2011,09,19,05,58,7.60
2011,09,19,05,59,7.60
2011,09,19,06,00,7.60
2011,09,19,06,01,7.50
2011,09,19,06,02,7.50
2011,09,19,06,03,7.40
2011,09,19,06,04,7.40
2011,09,19,06,05,7.40
2011,09,19,06,06,7.40
2011,09,19,06,07,7.40
2011,09,19,06,08,7.40
2011,09,19,06,09,7.40
2011,09,19,06,10,7.40
2011,09,19,06,11,7.40
2011,09,19,06,12,7.40
2011,09,19,06,13,7.40
2011,09,19,06,14,7.40
2011,09,19,06,15,7.40
2011,09,19,06,16,7.40
2011,09,19,06,17,7.40
2011,09,19,06,18,7.30
2011,09,19,06,19,7.20
2011,09,19,06,20,7.20
2011,09,19,06,21,7.20
2011,09,19,06,22,7.20
2011,09,19,06,23,7.20
2011,09,19,06,24,7.20
2011,09,19,06,25,7.20
2011,09,19,06,26,7.20
2011,09,19,06,27,7.20
2011,09,19,06,28,7.30
2011,09,19,06,29,7.30
2011,09,19,06,30,7.30
2011,09,19,06,31,7.30
2011,09,19,06,32,7.40
2011,09,19,06,33,7.40
2011,09,19,06,34,7.40
2011,09,19,06,35,7.40
2011,09,19,06,36,7.40
2011,09,19,06,37,7.30
2011,09,19,06,38,7.20
2011,09,19,06,39,7.20
2011,09,19,06,40,7.20
2011,09,19,06,41,7.10
2011,09,19,06,42,7.10
2011,09,19,06,43,7.00
2011,09,19,06,44,7.00
2011,09,19,06,45,7.00
2011,09,19,06,46,7.00
2011,09,19,06,47,7.00
2011,09,19,06,48,7.00
2011,09,19,06,49,7.10
2011,09,19,06,50,7.10
2011,09,19,06,51,7.10
2011,09,19,06,52,7.20
2011,09,19,06,53,7.20
2011,09,19,06,54,7.20
2011,09,19,06,55,7.20
2011,09,19,06,56,7.20
2011,09,19,06,57,7.20
2011,09,19,06,58,7.20
2011,09,19,06,59,7.20
2011,09,19,07,00,7.20
2011,09,19,07,01,7.20
2011,09,19,07,02,7.20
2011,09,19,07,03,7.20
2011,09,19,07,04,7.10
2011,09,19,07,05,7.00
2011,09,19,07,06,7.00
2011,09,19,07,07,6.90
2011,09,19,07,08,6.90
2011,09,19,07,09,6.90
2011,09,19,07,10,6.80
2011,09,19,07,11,6.80
2011,09,19,07,12,6.80
2011,09,19,07,13,6.80
2011,09,19,07,14,6.80
2011,09,19,07,15,6.80
2011,09,19,07,16,6.80
2011,09,19,07,17,6.80
2011,09,19,07,18,6.90
2011,09,19,07,19,6.90
2011,09,19,07,20,6.90
2011,09,19,07,21,7.00
2011,09,19,07,22,7.00
2011,09,19,07,23,7.00
2011,09,19,07,24,7.00
2011,09,19,07,25,7.00
2011,09,19,07,26,7.00
2011,09,19,07,27,7.00
2011,09,19,07,28,7.10
2011,09,19,07,29,7.10
2011,09,19,07,30,7.10
2011,09,19,07,31,7.00
2011,09,19,07,32,7.10
2011,09,19,07,33,7.10
2011,09,19,07,34,7.00
2011,09,19,07,35,7.00
2011,09,19,07,36,7.00
2011,09,19,07,37,7.00
2011,09,19,07,38,7.00
2011,09,19,07,39,7.00
2011,09,19,07,40,7.10
2011,09,19,07,41,7.10
2011,09,19,07,42,7.10
2011,09,19,07,43,7.10
2011,09,19,07,44,7.10
2011,09,19,07,45,7.10
2011,09,19,07,46,7.10
2011,09,19,07,47,7.20
2011,09,19,07,48,7.20
2011,09,19,07,49,7.20
2011,09,19,07,50,7.20
2011,09,19,07,51,7.30
2011,09,19,07,52,7.30
2011,09,19,07,53,7.40
2011,09,19,07,54,7.40
2011,09,19,07,55,7.50
2011,09,19,07,56,7.60
2011,09,19,07,57,7.70
2011,09,19,07,58,7.80
2011,09,19,07,59,7.80
2011,09,19,08,00,7.90
2011,09,19,08,01,7.90
2011,09,19,08,02,7.90
2011,09,19,08,03,7.90
2011,09,19,08,04,7.90
2011,09,19,08,05,7.90
2011,09,19,08,06,7.90
2011,09,19,08,07,7.90
2011,09,19,08,08,8.00
2011,09,19,08,09,8.00
2011,09,19,08,10,8.10
2011,09,19,08,11,8.10
2011,09,19,08,12,8.20
2011,09,19,08,13,8.20
2011,09,19,08,14,8.30
2011,09,19,08,15,8.30
2011,09,19,08,16,8.30
2011,09,19,08,17,8.40
2011,09,19,08,18,8.50
2011,09,19,08,19,8.60
2011,09,19,08,20,8.80
2011,09,19,08,21,8.90
2011,09,19,08,22,9.00
2011,09,19,08,23,9.10
2011,09,19,08,24,9.20
2011,09,19,08,25,9.30
2011,09,19,08,26,9.30
2011,09,19,08,27,9.30
2011,09,19,08,28,9.30
2011,09,19,08,29,9.30
2011,09,19,08,30,9.30
2011,09,19,08,31,9.30
2011,09,19,08,32,9.40
2011,09,19,08,33,9.40
2011,09,19,08,34,9.40
2011,09,19,08,35,9.50
2011,09,19,08,36,9.60
2011,09,19,08,37,9.60
2011,09,19,08,38,9.70
2011,09,19,08,39,9.70
2011,09,19,08,40,9.80
2011,09,19,08,41,9.80
2011,09,19,08,42,9.90
2011,09,19,08,43,10.00
2011,09,19,08,44,10.00
2011,09,19,08,45,10.10
2011,09,19,08,46,10.10
2011,09,19,08,47,10.10
2011,09,19,08,48,10.10
2011,09,19,08,49,10.10
2011,09,19,08,50,10.20
2011,09,19,08,51,10.20
2011,09,19,08,52,10.20
2011,09,19,08,53,10.30
2011,09,19,08,54,10.30
2011,09,19,08,55,10.40
2011,09,19,08,56,10.50
2011,09,19,08,57,10.60
2011,09,19,08,58,10.60
2011,09,19,08,59,10.70
2011,09,19,09,00,10.80
2011,09,19,09,01,10.80
2011,09,19,09,02,10.90
2011,09,19,09,03,11.00
2011,09,19,09,04,11.00
2011,09,19,09,05,11.10
2011,09,19,09,06,11.20
2011,09,19,09,07,11.40
2011,09,19,09,08,11.60
2011,09,19,09,09,11.80
2011,09,19,09,10,12.00
2011,09,19,09,11,12.20
2011,09,19,09,12,12.40
2011,09,19,09,13,12.70
2011,09,19,09,14,12.90
2011,09,19,09,15,13.20
2011,09,19,09,16,13.40
2011,09,19,09,17,13.60
2011,09,19,09,18,13.80
2011,09,19,09,19,13.90
2011,09,19,09,20,14.00
2011,09,19,09,21,14.00
2011,09,19,09,22,14.10
2011,09,19,09,23,14.10
2011,09,19,09,24,14.20
2011,09,19,09,25,14.20
2011,09,19,09,26,14.30
2011,09,19,09,27,14.40
2011,09,19,09,28,14.50
2011,09,19,09,29,14.50
2011,09,19,09,30,14.60
2011,09,19,09,31,14.70
2011,09,19,09,32,14.80
2011,09,19,09,33,14.80
2011,09,19,09,34,14.80
2011,09,19,09,35,14.80
2011,09,19,09,36,14.70
2011,09,19,09,37,14.70
2011,09,19,09,38,14.70
2011,09,19,09,39,14.80
2011,09,19,09,40,14.80
2011,09,19,09,41,14.90
2011,09,19,09,42,15.00
2011,09,19,09,43,15.00
2011,09,19,09,44,15.00
2011,09,19,09,45,15.10
2011,09,19,09,46,15.20
2011,09,19,09,47,15.40
2011,09,19,09,48,15.50
2011,09,19,09,49,15.70
2011,09,19,09,50,15.80
2011,09,19,09,51,15.90
2011,09,19,09,52,16.00
2011,09,19,09,53,16.20
2011,09,19,09,54,16.30
2011,09,19,09,55,16.40
2011,09,19,09,56,16.50
2011,09,19,09,57,16.60
2011,09,19,09,58,16.70
2011,09,19,09,59,16.80
2011,09,19,10,00,16.80
2011,09,19,10,01,16.90
2011,09,19,10,02,16.90
2011,09,19,10,03,16.90
2011,09,19,10,04,17.00
2011,09,19,10,05,17.10
2011,09,19,10,06,17.10
2011,09,19,10,07,17.20
2011,09,19,10,08,17.20
2011,09,19,10,09,17.30
2011,09,19,10,10,17.40
2011,09,19,10,11,17.40
2011,09,19,10,12,17.50
2011,09,19,10,13,17.60
2011,09,19,10,14,17.70
2011,09,19,10,15,17.70
2011,09,19,10,16,17.80
2011,09,19,10,17,17.80
2011,09,19,10,18,17.80
2011,09,19,10,19,17.80
2011,09,19,10,20,17.80
2011,09,19,10,21,17.60
2011,09,19,10,22,17.50
2011,09,19,10,23,17.40
2011,09,19,10,24,17.50
2011,09,19,10,25,17.60
2011,09,19,10,26,17.60
2011,09,19,10,27,17.60
2011,09,19,10,28,17.60
2011,09,19,10,29,17.60
2011,09,19,10,30,17.70
2011,09,19,10,31,17.70
2011,09,19,10,32,17.80
2011,09,19,10,33,17.80
2011,09,19,10,34,17.90
2011,09,19,10,35,18.00
2011,09,19,10,36,18.10
2011,09,19,10,37,18.10
2011,09,19,10,38,18.20
2011,09,19,10,39,18.20
2011,09,19,10,40,18.20
2011,09,19,10,41,18.10
2011,09,19,10,42,18.00
2011,09,19,10,43,17.90
2011,09,19,10,44,17.90
2011,09,19,10,45,17.90
2011,09,19,10,46,18.00
2011,09,19,10,47,18.00
2011,09,19,10,48,18.00
2011,09,19,10,49,18.00
2011,09,19,10,50,18.00
2011,09,19,10,51,18.00
2011,09,19,10,52,17.90
2011,09,19,10,53,18.00
2011,09,19,10,54,18.00
2011,09,19,10,55,18.00
2011,09,19,10,56,18.00
2011,09,19,10,57,18.00
2011,09,19,10,58,17.80
2011,09,19,10,59,17.70
2011,09,19,11,00,17.60
2011,09,19,11,01,17.60
2011,09,19,11,02,17.60
2011,09,19,11,03,17.60
2011,09,19,11,04,17.50
2011,09,19,11,05,17.60
2011,09,19,11,06,17.50
2011,09,19,11,07,17.50
2011,09,19,11,08,17.50
2011,09,19,11,09,17.50
2011,09,19,11,10,17.50
2011,09,19,11,11,17.60
2011,09,19,11,12,17.60
2011,09,19,11,13,17.60
2011,09,19,11,14,17.60
2011,09,19,11,15,17.60
2011,09,19,11,16,17.60
2011,09,19,11,17,17.70
2011,09,19,11,18,17.70
2011,09,19,11,19,17.80
2011,09,19,11,20,17.80
2011,09,19,11,21,17.90
2011,09,19,11,22,17.90
2011,09,19,11,23,18.00
2011,09,19,11,24,18.00
2011,09,19,11,25,18.10
2011,09,19,11,26,18.10
2011,09,19,11,27,18.20
2011,09,19,11,28,18.20
2011,09,19,11,29,18.10
2011,09,19,11,30,18.10
2011,09,19,11,31,18.10
2011,09,19,11,32,18.10
2011,09,19,11,33,18.10
2011,09,19,11,34,18.10
2011,09,19,11,35,18.10
2011,09,19,11,36,18.20
2011,09,19,11,37,18.10
2011,09,19,11,38,18.10
2011,09,19,11,39,18.10
2011,09,19,11,40,18.00
2011,09,19,11,41,18.00
2011,09,19,11,42,18.00
2011,09,19,11,43,18.00
2011,09,19,11,44,18.00
2011,09,19,11,45,17.90
2011,09,19,11,46,17.80
2011,09,19,11,47,17.80
2011,09,19,11,48,17.80
2011,09,19,11,49,17.90
2011,09,19,11,50,17.90
2011,09,19,11,51,18.00
2011,09,19,11,52,18.00
2011,09,19,11,53,18.00
2011,09,19,11,54,17.90
2011,09,19,11,55,17.80
2011,09,19,11,56,17.80
2011,09,19,11,57,17.80
2011,09,19,11,58,17.80
2011,09,19,11,59,17.70
2011,09,19,12,00,17.70
2011,09,19,12,01,17.80
2011,09,19,12,02,17.80
2011,09,19,12,03,17.80
2011,09,19,12,04,17.80
2011,09,19,12,05,17.80
2011,09,19,12,06,17.80
2011,09,19,12,07,17.80
2011,09,19,12,08,17.80
2011,09,19,12,09,17.80
2011,09,19,12,10,17.90
2011,09,19,12,11,17.90
2011,09,19,12,12,17.90
2011,09,19,12,13,17.80
2011,09,19,12,14,17.80
2011,09,19,12,15,17.80
2011,09,19,12,16,17.70
2011,09,19,12,17,17.70
2011,09,19,12,18,17.70
2011,09,19,12,19,17.70
2011,09,19,12,20,17.80
2011,09,19,12,21,17.90
2011,09,19,12,22,17.90
2011,09,19,12,23,17.90
2011,09,19,12,24,17.90
2011,09,19,12,25,17.80
2011,09,19,12,26,17.80
2011,09,19,12,27,17.70
2011,09,19,12,28,17.70
2011,09,19,12,29,17.80
2011,09,19,12,30,17.80
2011,09,19,12,31,17.80
2011,09,19,12,32,17.80
2011,09,19,12,33,17.80
2011,09,19,12,34,17.80
2011,09,19,12,35,17.70
2011,09,19,12,36,17.70
2011,09,19,12,37,17.70
2011,09,19,12,38,17.60
2011,09,19,12,39,17.70
2011,09,19,12,40,17.70
2011,09,19,12,41,17.70
2011,09,19,12,42,17.70
2011,09,19,12,43,17.80
2011,09,19,12,44,17.80
2011,09,19,12,45,17.90
2011,09,19,12,46,17.90
2011,09,19,12,47,17.90
2011,09,19,12,48,17.90
2011,09,19,12,49,17.90
2011,09,19,12,50,18.00
2011,09,19,12,51,18.10
2011,09,19,12,52,18.10
2011,09,19,12,53,18.10
2011,09,19,12,54,18.20
2011,09,19,12,55,18.30
2011,09,19,12,56,18.30
2011,09,19,12,57,18.40
2011,09,19,12,58,18.40
2011,09,19,12,59,18.40
2011,09,19,13,00,18.30
2011,09,19,13,01,18.30
2011,09,19,13,02,18.30
2011,09,19,13,03,18.20
2011,09,19,13,04,18.10
2011,09,19,13,05,18.10
2011,09,19,13,06,18.20
2011,09,19,13,07,18.20
2011,09,19,13,08,18.20
2011,09,19,13,09,18.20
2011,09,19,13,10,18.20
2011,09,19,13,11,18.20
2011,09,19,13,12,18.20
2011,09,19,13,13,18.10
2011,09,19,13,14,18.10
2011,09,19,13,15,18.00
2011,09,19,13,16,18.00
2011,09,19,13,17,17.90
2011,09,19,13,18,17.90
2011,09,19,13,19,17.90
2011,09,19,13,20,18.00
2011,09,19,13,21,18.10
2011,09,19,13,22,18.10
2011,09,19,13,23,18.10
2011,09,19,13,24,18.10
2011,09,19,13,25,18.00
2011,09,19,13,26,17.90
2011,09,19,13,27,17.90
2011,09,19,13,28,17.90
2011,09,19,13,29,17.90
2011,09,19,13,30,17.90
2011,09,19,13,31,17.90
2011,09,19,13,32,17.90
2011,09,19,13,33,17.80
2011,09,19,13,34,17.80
2011,09,19,13,35,17.80
2011,09,19,13,36,17.80
2011,09,19,13,37,17.80
2011,09,19,13,38,17.80
2011,09,19,13,39,17.80
2011,09,19,13,40,17.90
2011,09,19,13,41,17.90
2011,09,19,13,42,18.00
2011,09,19,13,43,18.10
2011,09,19,13,44,18.20
2011,09,19,13,45,18.30
2011,09,19,13,46,18.30
2011,09,19,13,47,18.20
2011,09,19,13,48,18.20
2011,09,19,13,49,18.20
2011,09,19,13,50,18.10
2011,09,19,13,51,18.10
2011,09,19,13,52,18.00
2011,09,19,13,53,18.00
2011,09,19,13,54,18.00
2011,09,19,13,55,18.00
2011,09,19,13,56,18.10
2011,09,19,13,57,18.10
2011,09,19,13,58,18.10
2011,09,19,13,59,18.20
2011,09,19,14,00,18.20
2011,09,19,14,01,18.20
2011,09,19,14,02,18.20
2011,09,19,14,03,18.10
2011,09,19,14,04,18.10
2011,09,19,14,05,18.10
2011,09,19,14,06,18.00
2011,09,19,14,07,18.00
2011,09,19,14,08,18.00
2011,09,19,14,09,18.00
2011,09,19,14,10,18.00
2011,09,19,14,11,18.10
2011,09,19,14,12,18.20
2011,09,19,14,13,18.20
2011,09,19,14,14,18.20
2011,09,19,14,15,18.20
2011,09,19,14,16,18.20
2011,09,19,14,17,18.20
2011,09,19,14,18,18.20
2011,09,19,14,19,18.20
2011,09,19,14,20,18.20
2011,09,19,14,21,18.20
2011,09,19,14,22,18.20
2011,09,19,14,23,18.30
2011,09,19,14,24,18.40
2011,09,19,14,25,18.40
2011,09,19,14,26,18.50
2011,09,19,14,27,18.60
2011,09,19,14,28,18.60
2011,09,19,14,29,18.60
2011,09,19,14,30,18.50
2011,09,19,14,31,18.40
2011,09,19,14,32,18.30
2011,09,19,14,33,18.30
2011,09,19,14,34,18.30
2011,09,19,14,35,18.20
2011,09,19,14,36,18.20
2011,09,19,14,37,18.20
2011,09,19,14,38,18.30
2011,09,19,14,39,18.30
2011,09,19,14,40,18.30
2011,09,19,14,41,18.30
2011,09,19,14,42,18.30
2011,09,19,14,43,18.30
2011,09,19,14,44,18.30
2011,09,19,14,45,18.40
2011,09,19,14,46,18.40
2011,09,19,14,47,18.50
2011,09,19,14,48,18.50
2011,09,19,14,49,18.50
2011,09,19,14,50,18.50
2011,09,19,14,51,18.60
2011,09,19,14,52,18.70
2011,09,19,14,53,18.70
2011,09,19,14,54,18.70
2011,09,19,14,55,18.70
2011,09,19,14,56,18.70
2011,09,19,14,57,18.70
2011,09,19,14,58,18.60
2011,09,19,14,59,18.60
2011,09,19,15,00,18.60
2011,09,19,15,01,18.60
2011,09,19,15,02,18.60
2011,09,19,15,03,18.60
2011,09,19,15,04,18.60
2011,09,19,15,05,18.60
2011,09,19,15,06,18.60
2011,09,19,15,07,18.50
2011,09,19,15,08,18.50
2011,09,19,15,09,18.40
2011,09,19,15,10,18.40
2011,09,19,15,11,18.30
2011,09,19,15,12,18.30
2011,09,19,15,13,18.30
2011,09,19,15,14,18.40
2011,09,19,15,15,18.40
2011,09,19,15,16,18.30
2011,09,19,15,17,18.30
2011,09,19,15,18,18.30
2011,09,19,15,19,18.40
2011,09,19,15,20,18.50
2011,09,19,15,21,18.50
2011,09,19,15,22,18.50
2011,09,19,15,23,18.60
2011,09,19,15,24,18.60
2011,09,19,15,25,18.60
2011,09,19,15,26,18.60
2011,09,19,15,27,18.60
2011,09,19,15,28,18.50
2011,09,19,15,29,18.50
2011,09,19,15,30,18.50
2011,09,19,15,31,18.50
2011,09,19,15,32,18.60
2011,09,19,15,33,18.50
2011,09,19,15,34,18.50
2011,09,19,15,35,18.40
2011,09,19,15,36,18.40
2011,09,19,15,37,18.40
2011,09,19,15,38,18.40
2011,09,19,15,39,18.40
2011,09,19,15,40,18.50
2011,09,19,15,41,18.50
2011,09,19,15,42,18.60
2011,09,19,15,43,18.70
2011,09,19,15,44,18.80
2011,09,19,15,45,18.80
2011,09,19,15,46,18.80
2011,09,19,15,47,18.70
2011,09,19,15,48,18.70
2011,09,19,15,49,18.80
2011,09,19,15,50,18.80
2011,09,19,15,51,18.80
2011,09,19,15,52,18.80
2011,09,19,15,53,18.90
2011,09,19,15,54,18.90
2011,09,19,15,55,18.90
2011,09,19,15,56,18.90
2011,09,19,15,57,18.90
2011,09,19,15,58,18.90
2011,09,19,15,59,18.90
2011,09,19,16,00,18.90
2011,09,19,16,01,18.90
2011,09,19,16,02,18.90
2011,09,19,16,03,18.90
2011,09,19,16,04,18.90
2011,09,19,16,05,18.90
2011,09,19,16,06,18.80
2011,09,19,16,07,18.90
2011,09,19,16,08,18.90
2011,09,19,16,09,18.80
2011,09,19,16,10,18.80
2011,09,19,16,11,18.80
2011,09,19,16,12,18.80
2011,09,19,16,13,18.80
2011,09,19,16,14,18.80
2011,09,19,16,15,18.80
2011,09,19,16,16,18.90
2011,09,19,16,17,18.90
2011,09,19,16,18,19.00
2011,09,19,16,19,19.00
2011,09,19,16,20,19.10
2011,09,19,16,21,19.10
2011,09,19,16,22,19.10
2011,09,19,16,23,19.10
2011,09,19,16,24,19.20
2011,09,19,16,25,19.20
2011,09,19,16,26,19.10
2011,09,19,16,27,19.10
2011,09,19,16,28,19.10
2011,09,19,16,29,19.00
2011,09,19,16,30,18.90
2011,09,19,16,31,18.80
2011,09,19,16,32,18.80
2011,09,19,16,33,18.80
2011,09,19,16,34,18.80
2011,09,19,16,35,18.90
2011,09,19,16,36,18.90
2011,09,19,16,37,18.90
2011,09,19,16,38,18.90
2011,09,19,16,39,18.90
2011,09,19,16,40,19.00
2011,09,19,16,41,19.00
2011,09,19,16,42,19.10
2011,09,19,16,43,19.10
2011,09,19,16,44,19.10
2011,09,19,16,45,19.10
2011,09,19,16,46,19.10
2011,09,19,16,47,19.00
2011,09,19,16,48,19.00
2011,09,19,16,49,19.00
2011,09,19,16,50,18.90
2011,09,19,16,51,18.90
2011,09,19,16,52,18.90
2011,09,19,16,53,18.90
2011,09,19,16,54,18.90
2011,09,19,16,55,18.90
2011,09,19,16,56,18.90
2011,09,19,16,57,19.00
2011,09,19,16,58,19.00
2011,09,19,16,59,19.10
2011,09,19,17,00,19.10
2011,09,19,17,01,19.00
2011,09,19,17,02,19.00
2011,09,19,17,03,19.00
2011,09,19,17,04,19.10
2011,09,19,17,05,19.10
2011,09,19,17,06,19.10
2011,09,19,17,07,19.10
2011,09,19,17,08,19.00
2011,09,19,17,09,19.00
2011,09,19,17,10,18.90
2011,09,19,17,11,18.90
2011,09,19,17,12,18.90
2011,09,19,17,13,18.80
2011,09,19,17,14,18.80
2011,09,19,17,15,18.80
2011,09,19,17,16,18.80
2011,09,19,17,17,18.80
2011,09,19,17,18,18.80
2011,09,19,17,19,18.70
2011,09,19,17,20,18.70
2011,09,19,17,21,18.70
2011,09,19,17,22,18.70
2011,09,19,17,23,18.70
2011,09,19,17,24,18.70
2011,09,19,17,25,18.70
2011,09,19,17,26,18.70
2011,09,19,17,27,18.70
2011,09,19,17,28,18.70
2011,09,19,17,29,18.70
2011,09,19,17,30,18.70
2011,09,19,17,31,18.70
2011,09,19,17,32,18.70